Time,TemperatureF,DewpointF,PressureIn,WindDirection,WindDirectionDegrees,WindSpeedMPH,WindSpeedGustMPH,Humidity,HourlyPrecipIn,Conditions,Clouds,dailyrainin,SoftwareType,DateUTC
2013-01-19 00:05:00,39.1,32.0,29.89,SW,223,6.0,13.0,75,0.00,,,0.00,weatherlink.com 1.10,2013-01-19 06:05:00,
2013-01-19 00:20:00,38.8,32.0,29.89,SW,220,5.0,8.0,75,0.00,,,0.00,weatherlink.com 1.10,2013-01-19 06:20:00,
2013-01-19 00:35:00,38.1,31.0,29.89,SW,215,7.0,9.0,76,0.00,,,0.00,weatherlink.com 1.10,2013-01-19 06:35:00,
2013-01-19 00:50:00,38.1,32.0,29.88,SW,219,5.0,12.0,78,0.00,,,0.00,weatherlink.com 1.10,2013-01-19 06:50:00,
2013-01-19 01:05:00,39.0,33.0,29.88,SW,223,13.0,14.0,78,0.00,,,0.00,weatherlink.com 1.10,2013-01-19 07:05:00,
2013-01-19 01:20:00,40.1,33.0,29.88,SW,234,13.0,17.0,75,0.00,,,0.00,weatherlink.com 1.10,2013-01-19 07:20:00,
2013-01-19 01:35:00,40.5,33.0,29.88,SW,224,2.0,17.0,74,0.00,,,0.00,weatherlink.com 1.10,2013-01-19 07:35:00,
2013-01-19 01:50:00,40.7,33.0,29.87,SW,232,9.0,18.0,73,0.00,,,0.00,weatherlink.com 1.10,2013-01-19 07:50:00,
2013-01-19 02:05:00,40.8,33.0,29.88,SW,217,11.0,20.0,73,0.00,,,0.00,weatherlink.com 1.10,2013-01-19 08:05:00,
2013-01-19 02:20:00,40.4,32.0,29.87,SW,229,6.0,16.0,73,0.00,,,0.00,weatherlink.com 1.10,2013-01-19 08:20:00,
2013-01-19 02:35:00,40.1,32.0,29.88,SW,218,13.0,16.0,74,0.00,,,0.00,weatherlink.com 1.10,2013-01-19 08:35:00,
2013-01-19 02:50:00,39.8,32.0,29.87,SW,215,7.0,16.0,75,0.00,,,0.00,weatherlink.com 1.10,2013-01-19 08:50:00,
2013-01-19 03:05:00,39.5,32.0,29.87,SW,221,8.0,16.0,75,0.00,,,0.00,weatherlink.com 1.10,2013-01-19 09:05:00,
2013-01-19 03:20:00,39.3,32.0,29.86,SW,222,10.0,14.0,75,0.00,,,0.00,weatherlink.com 1.10,2013-01-19 09:20:00,
2013-01-19 03:35:00,39.0,32.0,29.85,SW,230,3.0,16.0,76,0.00,,,0.00,weatherlink.com 1.10,2013-01-19 09:35:00,
2013-01-19 03:50:00,38.6,32.0,29.85,SW,229,5.0,14.0,76,0.00,,,0.00,weatherlink.com 1.10,2013-01-19 09:50:00,
2013-01-19 04:05:00,38.1,32.0,29.85,SW,231,10.0,13.0,77,0.00,,,0.00,weatherlink.com 1.10,2013-01-19 10:05:00,
2013-01-19 04:20:00,38.0,32.0,29.84,SW,229,5.0,17.0,78,0.00,,,0.00,weatherlink.com 1.10,2013-01-19 10:20:00,
2013-01-19 04:35:00,37.9,32.0,29.84,SSW,213,3.0,15.0,78,0.00,,,0.00,weatherlink.com 1.10,2013-01-19 10:35:00,
2013-01-19 04:50:00,37.9,32.0,29.84,SW,214,12.0,14.0,78,0.00,,,0.00,weatherlink.com 1.10,2013-01-19 10:50:00,
2013-01-19 05:05:00,37.7,31.0,29.85,SW,231,8.0,15.0,78,0.00,,,0.00,weatherlink.com 1.10,2013-01-19 11:05:00,
2013-01-19 06:51:00,36.4,31.0,29.83,SW,217,7.0,14.0,82,0.00,,,0.00,weatherlink.com 1.10,2013-01-19 12:51:00,
2013-01-19 07:06:00,36.5,31.0,29.84,SSW,213,7.0,12.0,81,0.00,,,0.00,weatherlink.com 1.10,2013-01-19 13:06:00,
2013-01-19 07:21:00,36.4,31.0,29.83,SW,214,10.0,14.0,81,0.00,,,0.00,weatherlink.com 1.10,2013-01-19 13:21:00,
2013-01-19 07:36:00,36.5,31.0,29.83,SW,214,5.0,14.0,81,0.00,,,0.00,weatherlink.com 1.10,2013-01-19 13:36:00,
2013-01-19 07:51:00,36.5,31.0,29.83,SSW,209,7.0,13.0,81,0.00,,,0.00,weatherlink.com 1.10,2013-01-19 13:51:00,
2013-01-19 08:06:00,36.7,31.0,29.86,WNW,297,9.0,14.0,80,0.00,,,0.00,weatherlink.com 1.10,2013-01-19 14:06:00,
2013-01-19 08:21:00,36.8,31.0,29.89,WNW,287,6.0,12.0,80,0.00,,,0.00,weatherlink.com 1.10,2013-01-19 14:21:00,
2013-01-19 08:36:00,37.2,32.0,29.87,WSW,240,8.0,15.0,80,0.00,,,0.00,weatherlink.com 1.10,2013-01-19 14:36:00,
2013-01-19 08:51:00,37.4,31.0,29.86,SW,227,4.0,13.0,79,0.00,,,0.00,weatherlink.com 1.10,2013-01-19 14:51:00,
2013-01-19 09:06:00,37.4,31.0,29.86,WSW,241,7.0,12.0,79,0.00,,,0.00,weatherlink.com 1.10,2013-01-19 15:06:00,
2013-01-19 09:21:00,37.7,31.0,29.88,WSW,252,6.0,13.0,78,0.00,,,0.00,weatherlink.com 1.10,2013-01-19 15:21:00,
2013-01-19 09:36:00,38.6,32.0,29.90,West,272,5.0,16.0,76,0.00,,,0.00,weatherlink.com 1.10,2013-01-19 15:36:00,
2013-01-19 09:51:00,38.7,31.0,29.90,WSW,253,6.0,15.0,74,0.00,,,0.00,weatherlink.com 1.10,2013-01-19 15:51:00,
2013-01-19 10:06:00,39.5,32.0,29.90,WSW,253,3.0,15.0,74,0.00,,,0.00,weatherlink.com 1.10,2013-01-19 16:06:00,
2013-01-19 10:21:00,41.7,32.0,29.90,WSW,244,8.0,18.0,69,0.00,,,0.00,weatherlink.com 1.10,2013-01-19 16:21:00,
2013-01-19 10:36:00,43.4,32.0,29.91,West,263,3.0,20.0,65,0.00,,,0.00,weatherlink.com 1.10,2013-01-19 16:36:00,
2013-01-19 10:51:00,45.3,32.0,29.91,West,276,5.0,13.0,61,0.00,,,0.00,weatherlink.com 1.10,2013-01-19 16:51:00,
2013-01-19 11:06:00,46.4,32.0,29.90,West,269,12.0,15.0,58,0.00,,,0.00,weatherlink.com 1.10,2013-01-19 17:06:00,
2013-01-19 11:21:00,47.6,32.0,29.89,West,261,6.0,15.0,55,0.00,,,0.00,weatherlink.com 1.10,2013-01-19 17:21:00,
2013-01-19 11:36:00,49.6,32.0,29.88,WSW,254,3.0,12.0,52,0.00,,,0.00,weatherlink.com 1.10,2013-01-19 17:36:00,
2013-01-19 12:06:00,52.4,32.0,29.87,West,277,14.0,16.0,46,0.00,,,0.00,weatherlink.com 1.10,2013-01-19 18:06:00,
2013-01-19 12:21:00,53.2,32.0,29.87,WNW,285,9.0,18.0,45,0.00,,,0.00,weatherlink.com 1.10,2013-01-19 18:21:00,
2013-01-19 12:36:00,52.9,32.0,29.87,West,277,15.0,25.0,45,0.00,,,0.00,weatherlink.com 1.10,2013-01-19 18:36:00,
2013-01-19 12:51:00,52.7,32.0,29.88,West,280,14.0,27.0,46,0.00,,,0.00,weatherlink.com 1.10,2013-01-19 18:51:00,
2013-01-19 13:21:00,51.8,33.0,29.89,WNW,302,16.0,26.0,49,0.00,,,0.00,weatherlink.com 1.10,2013-01-19 19:21:00,
2013-01-19 13:36:00,51.4,33.0,29.89,West,268,10.0,23.0,50,0.00,,,0.00,weatherlink.com 1.10,2013-01-19 19:36:00,
2013-01-19 14:06:00,50.8,34.0,29.89,WNW,286,6.0,23.0,52,0.00,,,0.00,weatherlink.com 1.10,2013-01-19 20:06:00,
2013-01-19 14:22:00,50.3,33.0,29.90,WNW,294,17.0,26.0,52,0.00,,,0.00,weatherlink.com 1.10,2013-01-19 20:22:00,
2013-01-19 15:06:00,50.5,34.0,29.92,NW,305,9.0,22.0,54,0.00,,,0.00,weatherlink.com 1.10,2013-01-19 21:06:00,
2013-01-19 15:52:00,49.4,34.0,29.96,NW,309,13.0,24.0,56,0.00,,,0.00,weatherlink.com 1.10,2013-01-19 21:52:00,
2013-01-19 16:07:00,48.5,34.0,29.98,WNW,284,11.0,32.0,58,0.00,,,0.00,weatherlink.com 1.10,2013-01-19 22:07:00,
2013-01-19 16:22:00,47.7,34.0,29.99,West,281,14.0,26.0,60,0.00,,,0.00,weatherlink.com 1.10,2013-01-19 22:22:00,
2013-01-19 17:07:00,45.8,35.0,30.02,WNW,300,9.0,24.0,65,0.00,,,0.00,weatherlink.com 1.10,2013-01-19 23:07:00,
2013-01-19 17:37:00,44.2,34.0,30.04,West,272,18.0,27.0,68,0.00,,,0.00,weatherlink.com 1.10,2013-01-19 23:37:00,
2013-01-19 17:52:00,43.6,34.0,30.05,West,278,12.0,26.0,69,0.00,,,0.00,weatherlink.com 1.10,2013-01-19 23:52:00,
2013-01-19 18:37:00,41.6,32.0,30.08,NW,313,14.0,30.0,70,0.00,,,0.00,weatherlink.com 1.10,2013-01-20 00:37:00,
2013-01-19 19:07:00,40.1,32.0,30.10,WNW,298,15.0,30.0,72,0.00,,,0.00,weatherlink.com 1.10,2013-01-20 01:07:00,
2013-01-19 19:22:00,39.6,31.0,30.11,WNW,288,20.0,28.0,71,0.00,,,0.00,weatherlink.com 1.10,2013-01-20 01:22:00,
2013-01-19 19:52:00,38.6,30.0,30.13,WNW,290,20.0,29.0,71,0.00,,,0.00,weatherlink.com 1.10,2013-01-20 01:52:00,
2013-01-19 20:07:00,36.9,23.0,30.14,WNW,292,10.0,27.0,58,0.00,,,0.00,weatherlink.com 1.10,2013-01-20 02:07:00,
2013-01-19 20:37:00,33.5,16.0,30.16,NW,315,19.0,34.0,48,0.00,,,0.00,weatherlink.com 1.10,2013-01-20 02:37:00,
2013-01-19 21:08:00,29.6,13.0,30.18,NW,304,20.0,37.0,51,0.00,,,0.00,weatherlink.com 1.10,2013-01-20 03:08:00,
2013-01-19 21:23:00,28.4,14.0,30.19,NW,306,22.0,37.0,55,0.00,,,0.00,weatherlink.com 1.10,2013-01-20 03:23:00,
2013-01-19 21:38:00,27.5,14.0,30.21,WNW,298,10.0,26.0,56,0.00,,,0.00,weatherlink.com 1.10,2013-01-20 03:38:00,
2013-01-19 21:53:00,26.0,13.0,30.22,WNW,289,5.0,32.0,59,0.00,,,0.00,weatherlink.com 1.10,2013-01-20 03:53:00,
2013-01-19 22:08:00,24.7,14.0,30.24,WNW,298,23.0,29.0,64,0.00,,,0.00,weatherlink.com 1.10,2013-01-20 04:08:00,
2013-01-19 22:23:00,23.4,14.0,30.25,NW,309,14.0,30.0,67,0.00,,,0.00,weatherlink.com 1.10,2013-01-20 04:23:00,
2013-01-19 22:38:00,22.3,13.0,30.26,NW,319,9.0,27.0,68,0.00,,,0.00,weatherlink.com 1.10,2013-01-20 04:38:00,
2013-01-19 22:53:00,20.8,12.0,30.27,West,279,17.0,27.0,69,0.00,,,0.00,weatherlink.com 1.10,2013-01-20 04:53:00,
2013-01-19 23:08:00,19.8,11.0,30.28,NW,317,11.0,28.0,69,0.00,,,0.00,weatherlink.com 1.10,2013-01-20 05:08:00,
2013-01-19 23:23:00,18.9,10.0,30.29,NW,318,9.0,23.0,69,0.00,,,0.00,weatherlink.com 1.10,2013-01-20 05:23:00,
2013-01-19 23:38:00,18.4,10.0,30.30,NW,313,16.0,25.0,69,0.00,,,0.00,weatherlink.com 1.10,2013-01-20 05:38:00,
2013-01-19 23:53:00,17.8,9.0,30.29,NW,324,12.0,19.0,69,0.00,,,0.00,weatherlink.com 1.10,2013-01-20 05:53:00,